Change the Weather History Date:

Wednesday, December 12, 2012

  Actual Average Record
Temperature  
Mean Temperature 34 °F -  
Max Temperature 42 °F 42 °F 67 °F (1931)
Min Temperature 26 °F 24 °F 3 °F (1988)
Degree Days  
Heating Degree Days 31    
Moisture  
Dew Point 28 °F    
Average Humidity 87    
Maximum Humidity 100    
Minimum Humidity 46    
Precipitation  
Precipitation 0.00 in - - ()
Sea Level Pressure  
Sea Level Pressure 30.34 in    
Wind  
Wind Speed 0 mph (NNW)    
Max Wind Speed 8 mph    
Max Gust Speed -    
Visibility 10 miles    
Events      
Averages and records for this station are not official NWS values.
T = Trace of Precipitation, MM = Missing Value Source: NWS Daily Summary

Daily Weather History Graph

Daily Weather History Graph

Search for Another Location

Airport or City:

Trip Planner

Search our weather history database for the weather conditions in past years. The results will help you decide how hot, cold, wet, or windy it might be!

Date:

Astronomy

Dec. 12, 2012 Rise Set
Actual Time 7:12 AM EST 4:30 PM EST
Civil Twilight 6:42 AM EST 5:01 PM EST
Nautical Twilight 6:07 AM EST 5:35 PM EST
Astronomical Twilight 5:34 AM EST 6:08 PM EST
Moon 6:14 AM EST (12/12) 4:04 PM EST (12/12)
Length of Visible Light 10h 19m
Length of Day
9h 17m
Waning Crescent, 1% of the Moon is Illuminated
Dec 12
Waning Crescent
Dec 13
New
Dec 20
First Quarter
Dec 28
Full
Jan 4
Last Quarter

Hourly Weather History & Observations

Time (EST) Temp. Windchill Dew Point Humidity Pressure Visibility Wind Dir Wind Speed Gust Speed Precip Events Conditions
12:15 AM 32.0 °F - 32.0 °F 100% 30.21 in 10.0 mi Calm Calm - N/A   Clear
12:35 AM 30.2 °F - 30.2 °F 100% 30.20 in 10.0 mi Calm Calm - N/A   Clear
12:55 AM 30.2 °F - 30.2 °F 100% 30.21 in 10.0 mi Calm Calm - N/A   Clear
1:15 AM 28.4 °F - 28.4 °F 100% 30.22 in 10.0 mi Calm Calm - N/A   Clear
1:35 AM 30.2 °F - 30.2 °F 100% 30.22 in 10.0 mi Calm Calm - N/A   Clear
1:55 AM 28.4 °F - 28.4 °F 100% 30.23 in 10.0 mi Calm Calm - N/A   Clear
2:15 AM 28.4 °F - 28.4 °F 100% 30.24 in 10.0 mi Calm Calm - N/A   Clear
2:35 AM 30.2 °F - 30.2 °F 100% 30.25 in 10.0 mi Calm Calm - N/A   Clear
2:55 AM 28.4 °F - 28.4 °F 100% 30.26 in 10.0 mi Calm Calm - N/A   Clear
3:15 AM 28.4 °F - 28.4 °F 100% 30.26 in 10.0 mi Calm Calm - N/A   Clear
3:35 AM 28.4 °F - 28.4 °F 100% 30.26 in 10.0 mi Calm Calm - N/A   Clear
3:55 AM 28.4 °F - 28.4 °F 100% 30.28 in 10.0 mi Calm Calm - N/A   Clear
4:15 AM 28.4 °F - 28.4 °F 100% 30.29 in 10.0 mi Calm Calm - N/A   Clear
4:35 AM 28.4 °F - 28.4 °F 100% 30.30 in 10.0 mi Calm Calm - N/A   Clear
4:55 AM 28.4 °F - 28.4 °F 100% 30.30 in 10.0 mi Calm Calm - N/A   Clear
5:15 AM 28.4 °F - 28.4 °F 100% 30.31 in 10.0 mi Calm Calm - N/A   Clear
5:35 AM 26.6 °F - 26.6 °F 100% 30.31 in 10.0 mi Calm Calm - N/A   Clear
6:45 AM 28.4 °F - 26.6 °F 93% 30.34 in 10.0 mi Calm Calm - N/A   Clear
7:45 AM 28.4 °F - 28.4 °F 100% 30.37 in 10.0 mi Calm Calm - N/A   Clear
8:45 AM 33.8 °F - 30.2 °F 87% 30.39 in 10.0 mi Calm Calm - N/A   Scattered Clouds
9:45 AM 39.2 °F - 28.4 °F 65% 30.39 in 10.0 mi Calm Calm - N/A   Scattered Clouds
10:45 AM 41.0 °F 35.8 °F 23.0 °F 49% 30.40 in 10.0 mi North 8.1 mph - N/A   Overcast
11:45 AM 41.0 °F 35.8 °F 23.0 °F 49% 30.40 in 10.0 mi NNW 8.1 mph - N/A   Overcast
12:45 PM 42.8 °F 38.6 °F 23.0 °F 46% 30.38 in 10.0 mi NW 6.9 mph - N/A   Overcast
1:45 PM 42.8 °F 41.1 °F 23.0 °F 46% 30.37 in 10.0 mi NNW 3.5 mph - N/A   Overcast
2:45 PM 42.8 °F - 23.0 °F 46% 30.38 in 10.0 mi Calm Calm - N/A   Mostly Cloudy
3:45 PM 41.0 °F 39.0 °F 24.8 °F 53% 30.38 in 10.0 mi NNW 3.5 mph - N/A   Mostly Cloudy
4:45 PM 39.2 °F - 24.8 °F 56% 30.40 in 10.0 mi Calm Calm - N/A   Mostly Cloudy
5:45 PM 35.6 °F - 26.6 °F 70% 30.41 in 10.0 mi Calm Calm - N/A   Mostly Cloudy
6:45 PM 33.8 °F - 26.6 °F 75% 30.40 in 10.0 mi Calm Calm - N/A   Mostly Cloudy
7:45 PM 32.0 °F - 26.6 °F 80% 30.40 in 10.0 mi Calm Calm - N/A   Scattered Clouds
8:45 PM 30.2 °F - 28.4 °F 93% 30.43 in 10.0 mi Calm Calm - N/A   Scattered Clouds
9:45 PM 30.2 °F - 28.4 °F 93% 30.44 in 10.0 mi Calm Calm - N/A   Scattered Clouds
9:55 PM 30.2 °F - 28.4 °F 93% 30.43 in 10.0 mi Calm Calm - N/A   Clear
10:15 PM 30.2 °F - 28.4 °F 93% 30.43 in 10.0 mi Calm Calm - N/A   Clear
10:35 PM 30.2 °F - 28.4 °F 93% 30.43 in 10.0 mi Calm Calm - N/A   Clear
10:55 PM 30.2 °F - 28.4 °F 93% 30.43 in 10.0 mi Calm Calm - N/A   Clear
11:15 PM 28.4 °F - 28.4 °F 100% 30.44 in 10.0 mi Calm Calm - N/A   Clear
11:35 PM 28.4 °F - 28.4 °F 100% 30.44 in 10.0 mi Calm Calm - N/A   Clear
11:55 PM 28.4 °F - 28.4 °F 100% 30.44 in 10.0 mi Calm Calm - N/A   Clear